Weather History for KRSL - February, 2013

Change the Weather History Date:

Wednesday, February 27, 2013

  Actual Average Record
Temperature  
Mean Temperature 29 °F -  
Max Temperature 37 °F 52 °F 76 °F (1976)
Min Temperature 21 °F 27 °F -3 °F (1962)
Degree Days  
Heating Degree Days 36    
Moisture  
Dew Point 22 °F    
Average Humidity 76    
Maximum Humidity 93    
Minimum Humidity 62    
Precipitation  
Precipitation 0.00 in - - ()
Sea Level Pressure  
Sea Level Pressure 30.12 in    
Wind  
Wind Speed 13 mph (NW)    
Max Wind Speed 25 mph    
Max Gust Speed 33 mph    
Visibility 9 miles    
Events Snow    
Averages and records for this station are not official NWS values.
T = Trace of Precipitation, MM = Missing Value Source: NWS Daily Summary

Daily Weather History Graph

Daily Weather History Graph

Search for Another Location

Airport or City:

Trip Planner

Search our weather history database for the weather conditions in past years. The results will help you decide how hot, cold, wet, or windy it might be!

Date:

Astronomy

Feb. 27, 2013 Rise Set
Actual Time 7:10 AM CST 6:26 PM CST
Civil Twilight 6:43 AM CST 6:53 PM CST
Nautical Twilight 6:12 AM CST 7:23 PM CST
Astronomical Twilight 5:41 AM CST 7:54 PM CST
Moon 8:47 PM CST (2/27) 7:47 AM CST (2/27)
Length of Visible Light 12h 09m
Length of Day
11h 16m
Waning Gibbous, 96% of the Moon is Illuminated
Feb 27
Waning Gibbous
Mar 4
Last Quarter
Mar 11
New
Mar 19
First Quarter
Mar 27
Full

Hourly Weather History & Observations

Time (CST) Temp. Windchill Dew Point Humidity Pressure Visibility Wind Dir Wind Speed Gust Speed Precip Events Conditions
12:27 AM 21.2 °F 11.7 °F 19.4 °F 93% 29.94 in 5.0 mi NW 8.1 mph - 0.00 in Snow Light Snow
12:53 AM 24.1 °F 16.0 °F 21.0 °F 88% 30.01 in 5.0 mi WNW 6.9 mph - 0.00 in Snow Light Snow
1:30 AM 24.8 °F 16.9 °F 23.0 °F 93% 29.94 in 4.0 mi WNW 6.9 mph - 0.00 in Snow Light Snow
1:53 AM 24.8 °F 16.1 °F 21.2 °F 86% 29.95 in 5.0 mi West 8.1 mph - N/A   Overcast
2:53 AM 26.1 °F 16.2 °F 21.9 °F 84% 30.02 in 7.0 mi West 10.4 mph - N/A   Overcast
3:53 AM 23.0 °F 13.1 °F 19.9 °F 88% 30.03 in 7.0 mi West 9.2 mph - N/A   Overcast
4:53 AM 23.0 °F 11.7 °F 18.0 °F 81% 30.04 in 10.0 mi WNW 11.5 mph - N/A   Mostly Cloudy
5:53 AM 23.0 °F 11.7 °F 18.0 °F 81% 30.06 in 10.0 mi NW 11.5 mph - N/A   Mostly Cloudy
6:53 AM 24.1 °F 11.0 °F 18.0 °F 77% 30.07 in 10.0 mi NW 16.1 mph - N/A   Mostly Cloudy
7:53 AM 25.0 °F 11.7 °F 17.1 °F 72% 30.11 in 10.0 mi NW 17.3 mph - N/A   Partly Cloudy
8:53 AM 28.0 °F 14.9 °F 18.0 °F 66% 30.12 in 10.0 mi NW 19.6 mph - N/A   Clear
9:53 AM 30.0 °F 16.9 °F 21.0 °F 69% 30.15 in 10.0 mi NNW 21.9 mph - N/A   Clear
10:53 AM 33.1 °F 20.1 °F 21.9 °F 64% 30.17 in 10.0 mi NNW 25.3 mph - N/A   Clear
11:53 AM 35.1 °F 22.7 °F 24.1 °F 64% 30.18 in 10.0 mi NNW 25.3 mph 29.9 mph N/A   Clear
12:53 PM 36.0 °F 24.7 °F 24.1 °F 62% 30.17 in 10.0 mi NNW 21.9 mph 27.6 mph N/A   Clear
1:53 PM 36.0 °F 24.2 °F 25.0 °F 64% 30.18 in 10.0 mi NNW 24.2 mph 33.4 mph N/A   Clear
2:53 PM 37.0 °F 26.2 °F 26.1 °F 65% 30.18 in 10.0 mi NNW 21.9 mph - N/A   Clear
3:53 PM 37.0 °F 26.7 °F 26.1 °F 65% 30.20 in 10.0 mi NNW 19.6 mph - N/A   Partly Cloudy
4:53 PM 36.0 °F 25.0 °F 27.0 °F 70% 30.20 in 10.0 mi NW 20.7 mph 25.3 mph N/A   Clear
5:53 PM 35.1 °F 25.2 °F 26.1 °F 70% 30.22 in 10.0 mi NW 16.1 mph - N/A   Clear
6:53 PM 33.1 °F 23.0 °F 26.1 °F 75% 30.23 in 10.0 mi NW 15.0 mph - N/A   Clear
7:53 PM 30.2 °F 20.8 °F 26.6 °F 86% 30.16 in 10.0 mi NW 11.5 mph - N/A   Clear
8:53 PM 30.9 °F 21.2 °F 25.0 °F 79% 30.23 in 10.0 mi NW 12.7 mph - N/A   Clear
9:53 PM 30.0 °F 20.0 °F 24.1 °F 79% 30.22 in 10.0 mi NW 12.7 mph - N/A   Clear
10:53 PM 28.9 °F 19.2 °F 23.0 °F 78% 30.22 in 10.0 mi WNW 11.5 mph - N/A   Clear
11:53 PM 28.0 °F 18.1 °F 21.9 °F 78% 30.22 in 10.0 mi WNW 11.5 mph - N/A   Clear